Back to catalog

STARLINK-35940

AliveCommunicationsVLEO
NORAD 66617·PAYLOAD·🇺🇸 United States

Launched Nov 23, 2025 from Vandenberg Space Force Base

Loading…

Next Passes (next 24 hours)

TLE

FreshSource: CelesTrak SupGP

Epoch: Sep 15, 2026, 02:56 UTC

1 66617C 25271A   26258.12270833  .00063786  00000+0  18844-2 0  2586
2 66617  53.1597 338.7259 0001188  89.9288  79.1496 15.34361647    14

Track STARLINK-35940 in real time with AllMySat

Download on the App Store